STARLINK-34885 (65328 NORAD) Tracking and Keplerian Element Data

This shows tracking and keplerian element data for the satellite.

Feedback or suggestion? Click here.




ElementValue
Catalog65328
NameSTARLINK-34885
Epoch Orbit1883
Epoch Day353.92339055
Epoch Year2025
RAAN217.2952
Inclination53.1568
Eccentricity5.6E-05
Argument of Perigee89.4177
Mean Anonmoly270.6888
Mean Motion15.30197221
Decay Rate0.00012121
L11 65328U 25189F 25353.92339055 .00012121 00000+0 42071-3 0 9996
L22 65328 53.1568 217.2952 0000560 89.4177 270.6888 15.30197221 18839



Live tracking and technical data element details for STARLINK-34885 (NORAD 65328). STARLINK-34885 can be tracked NOW for your location showing map with azimuth and elevation plus other details from your city location.







IsCatalogInMostPopularTable: catalog: 65328, numindb: 4
Update: records affected: 1



GetName: 65328 STARLINK-34885

Hit Count: updated at: Tue, 10 Feb 2026 02:46:11 GMT